Regional Weather Roundup
Issued by NWS

Home | Current Version | Previous Version | Text Only | Print | Product List | Glossary Off
Versions: 1 2 3 4 5 6 7 8 9 10 11 12 13 14 15 16 17 18 19 20 21 22 23 24 25 26 27 28 29 30 31 32 33 34 35 36 37 38 39 40 41 42 43 44 45 46 47 48 49 50

000
ASUS43 KMPX 271401
RWRMN
WEATHER ROUNDUP FOR MINNESOTA
NATIONAL WEATHER SERVICE TWIN CITIES/CHANHASSEN MN
900 AM CDT MON JUL 27 2015


NOTE: "FAIR" INDICATES FEW OR NO CLOUDS BELOW 12,000 FEET WITH NO
SIGNIFICANT WEATHER AND/OR OBSTRUCTIONS TO VISIBILITY. N/A MEANS
CURRENT SKY AND/OR WEATHER CONDITIONS ARE NOT AVAILABLE.

MNZ060>063-068>070-271500-
   Twin Cities Metro

CITY           SKY/WX    TMP DP  RH WIND       PRES   REMARKS
TWIN CITIES    PTSUNNY   76  69  79 SE6       29.99R
ST PAUL        MOSUNNY   76  69  79 S7        29.99R
CRYSTAL        MOSUNNY   78  69  73 SE6       29.97R
BLAINE         MOSUNNY   79  72  78 S7        29.99R
LAKEVILLE      MOSUNNY   73  70  88 SE5       29.99R
EDEN PRAIRIE   CLOUDY    76  70  82 SE5       29.98R
SOUTH ST PAUL  MOSUNNY   75  67  76 SE5       29.99R
LAKE ELMO      CLOUDY    75  70  83 SE5       30.01R
$$
MNZ001>005-007-008-013>017-022>024-027-028-271500-
   Northwest Minnesota

CITY           SKY/WX    TMP DP  RH WIND       PRES   REMARKS
BEMIDJI        SUNNY     75  69  80 S8        29.97R
HALLOCK        PTSUNNY   73  70  88 SE9       29.88F
ROSEAU         MOSUNNY   75  70  83 S5        29.93R
WARROAD        MOSUNNY   75  70  83 S3        29.94S
THIEF RVR FALL MOSUNNY   73  70  88 S6        29.92F
CROOKSTON      MOSUNNY   75  70  83 SE10      29.90F
FOSSTON        MOSUNNY   75  70  83 CALM      29.93F
DETROIT LAKES  SUNNY     73  68  83 SE10      29.93F
MOORHEAD       MOSUNNY   77  72  83 SE9       29.86F
PARK RAPIDS    PTSUNNY   75  68  78 S12       29.97F
MAHNOMEN       FAIR      74  70  85 SE10      29.92F
$$
MNZ006-009>011-018-025>026-271500-
   North Central Minnesota

CITY           SKY/WX    TMP DP  RH WIND       PRES   REMARKS
BAUDETTE       SUNNY     75  68  78 S6        29.95S
FLAG ISLAND    PTSUNNY   73  66  78 CALM      29.93S
INTL FALLS     MOSUNNY   76  67  73 S5        29.97S
WASKISH        SUNNY     75  70  83 SE3       29.96S
BIG FORK       SUNNY     75  68  78 CALM      29.99S
LONGVILLE      SUNNY     73  70  88 SE3       29.98S
GRAND RAPIDS   SUNNY     73  66  78 SE8       30.00S
CRANE LAKE     SUNNY     72  66  83 S2        30.01R
ORR            SUNNY     75  64  69 CALM      29.98S
COOK           SUNNY     75  66  73 SW5       30.01S
WALKER         FAIR      73  68  83 SE6       29.97S
$$
MNZ012-019>021-037-271500-
   Northeast Minnesota

CITY           SKY/WX    TMP DP  RH WIND       PRES   REMARKS
DULUTH         MOSUNNY   77  66  68 SW6       30.02S
ELY            SUNNY     75  66  73 SW5       30.02S
HIBBING        SUNNY     74  67  78 S3        30.01S
EVELETH        SUNNY     73  66  78 CALM      30.03R
DULUTH HARBOR  SUNNY     73  68  83 E3        30.00S
TWO HARBORS    SUNNY     81  72  74 SW5       30.00R
SILVER BAY     SUNNY     81  70  69 CALM      29.99S
GRAND MARAIS     N/A     56  52  86 W6        29.98R
G MARAIS ARPRT SUNNY     79  61  53 CALM      30.05R
$$
MNZ029>031-032-039>041-046>048-054>057-064-271500-
   West Central Minnesota

CITY           SKY/WX    TMP DP  RH WIND       PRES   REMARKS
FERGUS FALLS   SUNNY     75  73  94 SE10      29.88F
WHEATON        CLOUDY    70  68  94 E9        29.90S FOG
MORRIS         CLOUDY    73  72  94 SE13      29.90F FOG
ALEXANDRIA     CLOUDY    71  71 100 SE8       29.97R FOG
ELBOW LAKE     CLOUDY    72  71  97 SE12G17   29.91F FOG
WADENA         CLOUDY    70  70 100 S7        29.96S FOG
GLENWOOD       PTSUNNY   73  73 100 SE8       29.97S
APPLETON       CLOUDY    73  70  88 SE9       29.91F FOG
BENSON         PTSUNNY   75  70  83 SE6       29.93F
ORTONVILLE     CLOUDY    72  70  94 SE9       29.88F FOG
MADISON        PTSUNNY   72  72 100 SE8       29.91F
WILLMAR        CLOUDY    75  73  94 SE8       29.97S
$$
MNZ033>034-036-042>043-049>051-058-059-271500-
   Central Minnesota

CITY           SKY/WX    TMP DP  RH WIND       PRES   REMARKS
ST CLOUD       MOSUNNY   74  70  87 SE7       29.98R
SAUK CENTRE    CLOUDY    72  70  95 SE6       29.97S
PAYNESVILLE    CLOUDY    72  69  93 E8        29.97S
AITKIN         SUNNY     77  70  78 SE6       29.98S
PINE RIVER     SUNNY     73  70  88 SE6       30.00F
BRAINERD       SUNNY     76  70  82 SE6       29.98F
STAPLES        CLOUDY    72  68  88 S7        29.97S
LONG PRAIRIE   CLOUDY    70  68  94 SE6       29.98R
LITTLE FALLS   PTSUNNY   73  68  83 SE8       29.98R
LITCHFIELD     CLOUDY    75  73  94 SE7       29.98R
BUFFALO        MOSUNNY   75  69  80 SE6       29.99S
$$
MNZ037-044-045-052-053-271500-
   East Central Minnesota

CITY           SKY/WX    TMP DP  RH WIND       PRES   REMARKS
PRINCETON      PTSUNNY   79  72  78 SE3       29.99R
CAMBRIDGE      PTSUNNY   79  66  65 S7        29.98R
RUSH CITY      SUNNY     74  69  82 SE5       30.01R
MOOSE LAKE     SUNNY     73  68  83 CALM      29.99S
HINCKLEY       FAIR      73  70  88 SE5       30.00S
CLOQUET        SUNNY     75  66  73 S5        30.02S
MCGREGOR       SUNNY     73  68  83 S6        30.01R
$$
MNZ071>073-080-081-089-090-097-098-271500-
   Southwest Minnesota

CITY           SKY/WX    TMP DP  RH WIND       PRES   REMARKS
MONTEVIDEO     CLOUDY    73  73 100 S6        29.94F FOG
GRANITE FALLS  CLOUDY    73  72  98 E6        29.94S FOG
CANBY          CLOUDY    69  68  96 SE6       29.92F FOG
MARSHALL       CLOUDY    73  68  83 SE8       29.93F
REDWOOD FALLS  CLOUDY    73  71  93 E9        29.94S FOG
OLIVIA         CLOUDY    72  70  94 SE7       29.95S FOG
PIPESTONE      CLOUDY    75  73  94 SE6       29.92F
WINDOM         CLOUDY    73  72  94 SE6       29.96R FOG
WORTHINGTON    CLOUDY    73  70  88 SE8       29.94S
JACKSON        CLOUDY    73  72  94 SE8       29.97R FOG
TRACY          CLOUDY    73  72  94 E5        29.94F
SLAYTON        FOG       71  71 100 CALM      29.95S VSB 1/2
$$
MNZ065>067-074>077-082>085-091>093-271500-
   South Central Minnesota

CITY           SKY/WX    TMP DP  RH WIND       PRES   REMARKS
MANKATO        CLOUDY    72  70  94 SE9       29.97S
NEW ULM        CLOUDY    73  72  94 SE5       29.96R FOG
ST JAMES       CLOUDY    75  73  94 SE6       29.97R FOG
FAIRMONT       CLOUDY    73  68  83 SE10      29.96S
GLENCOE        CLOUDY    75  73  93 SE5       29.97S
OWATONNA       PTSUNNY   73  70  88 SE10      29.99S
WASECA         CLOUDY    72  70  94 SE7       29.99F FOG
ALBERT LEA     CLOUDY    72  70  94 SE6       29.98F FOG
$$
MNZ078>079-086>088-094>096-271500-
   Southeast Minnesota

CITY           SKY/WX    TMP DP  RH WIND       PRES   REMARKS
ROCHESTER      CLOUDY    72  69  90 SE8       30.02S
RED WING       SUNNY     77  68  73 SE6       29.98S
STANTON        MOSUNNY   77  70  78 S6        29.98R
DODGE CENTER   PTSUNNY   73  70  88 SE5       30.01R
WINONA         MOSUNNY   73  68  83 SE5       30.00S
AUSTIN         CLOUDY    73  70  88 SE6       30.00S FOG
PRESTON        PTSUNNY   71  66  84 SE5       30.03R
$$
ABBREVIATIONS USED IN REMARKS
   TC - TEMPERATURES IN CELSIUS
  WCI - WIND CHILL INDEX
   HX - HEAT INDEX
  VSB - VISIBILITY
$$


USA.gov is the U.S. government's official web portal to all federal, state and local government web resources and services.